Regional Weather Roundup
Issued by NWS

Home | Current Version | Previous Version | Graphics & Text | Print | Product List | Glossary On
Versions: 1 2 3 4 5 6 7 8 9 10 11 12 13 14 15 16 17 18 19 20 21 22 23 24 25 26 27 28 29 30 31 32 33 34 35 36 37 38 39 40 41 42 43 44 45 46 47 48 49 50
000
ASUS43 KFSD 301202
RWRSD

WEATHER ROUNDUP FOR SOUTH DAKOTA
NATIONAL WEATHER SERVICE SIOUX FALLS SD
700 AM CDT THU OCT 30 2014

NOTE: "FAIR" INDICATES FEW OR NO CLOUDS BELOW 12,000 FEET WITH NO
SIGNIFICANT WEATHER AND/OR OBSTRUCTIONS TO VISIBILITY.


SDZ001>005-009-010-012>017-301300-
NORTHWEST AND NORTH CENTRAL SOUTH DAKOTA

CITY           SKY/WX    TMP DP  RH WIND       PRES   REMARKS
BUFFALO          N/A     38  32  79 NW12      30.15R
FAITH            N/A     36  33  89 NW14      30.17R
MOBRIDGE       CLEAR     41  36  82 NW18      30.10R
$$

SDZ012>016-024>037-041>051-057-063-072>074-301300-
SOUTHWEST AND SOUTH CENTRAL SOUTH DAKOTA

CITY           SKY/WX    TMP DP  RH WIND       PRES   REMARKS
RAPID CTY ARPT CLEAR     35  29  78 N9        30.21R WCI  28
PIERRE         CLEAR     43  37  79 NW18      30.11R
CUSTER         CLEAR     37  26  64 W7        30.24R
ELLSWORTH AFB  CLEAR     46  32  58 NW12      30.20R
PHILIP         CLEAR     36  31  82 SW8       30.19R
PINE RIDGE     CLEAR     33  27  78 W5        30.24R WCI  29
SPEARFISH      FAIR      41  32  70 W7        30.24S
WINNER         FAIR      44  34  67 NW14      30.11R
$$

SDZ004>011-016>023-039-040-301300-
NORTHEAST SOUTH DAKOTA

CITY           SKY/WX    TMP DP  RH WIND       PRES   REMARKS
ABERDEEN       CLEAR     40  37  89 NW10      30.05R
WATERTOWN      CLEAR     34  32  92 CALM      30.00R
SISSETON         N/A     37  37 100 CALM      30.01R
$$

SDZ017-020-022-023-036>040-048>070-301300-
SOUTHEAST SOUTH DAKOTA

CITY           SKY/WX    TMP DP  RH WIND       PRES   REMARKS
SIOUX FALLS    MOCLDY    43  34  70 NW10      29.99R
HURON          CLEAR     36  32  85 NW9       30.05R
CHAMBERLAIN    CLEAR     42  36  79 N13       30.09R
MITCHELL       CLEAR     40  34  79 NW10      30.05R
YANKTON        CLEAR     39  34  81 W10       30.03R
$$

ABBREVIATIONS USED IN REMARKS
   TC - TEMPERATURE IN CELSIUS
  WCI - WIND CHILL INDEX
   HX - HEAT INDEX
  VSB - VISIBILITY




USA.gov is the U.S. government's official web portal to all federal, state and local government web resources and services.